TimeAKDT,TemperatureF,Dew PointF,Humidity,Sea Level PressureIn,VisibilityMPH,Wind Direction,Wind SpeedMPH,Gust SpeedMPH,PrecipitationIn,Events,Conditions,WindDirDegrees,DateUTC
12:36 AM,51.8,44.6,76,29.94,10.0,East,3.5,-,N/A,,Clear,90,2013-09-14 08:36:00
2:16 AM,48.2,44.6,87,29.94,10.0,ESE,3.5,-,N/A,,Clear,120,2013-09-14 10:16:00
2:56 AM,46.4,42.8,87,29.93,10.0,Calm,Calm,-,N/A,,Clear,0,2013-09-14 10:56:00
3:16 AM,46.4,44.6,93,29.92,10.0,East,3.5,-,N/A,,Clear,100,2013-09-14 11:16:00
4:56 AM,48.2,44.6,87,29.89,10.0,Calm,Calm,-,N/A,,Clear,0,2013-09-14 12:56:00
5:55 AM,46.4,42.8,87,29.88,10.0,Calm,Calm,-,N/A,,Clear,0,2013-09-14 13:55:00
6:16 AM,44.6,41.0,87,29.88,10.0,Calm,Calm,-,N/A,,Clear,0,2013-09-14 14:16:00
6:36 AM,44.6,42.8,93,29.89,10.0,Calm,Calm,-,N/A,,Clear,0,2013-09-14 14:36:00
6:56 AM,44.6,42.8,93,29.89,10.0,Calm,Calm,-,N/A,,Scattered Clouds,0,2013-09-14 14:56:00
7:50 AM,48.2,44.6,87,29.90,10.0,Calm,Calm,-,N/A,Fog,Patches of Fog,0,2013-09-14 15:50:00
8:55 AM,51.8,46.4,82,29.90,10.0,NE,3.5,-,N/A,,Scattered Clouds,40,2013-09-14 16:55:00
9:16 AM,51.8,46.4,82,29.90,-9999.0,NE,4.6,-,N/A,,Unknown,50,2013-09-14 17:16:00
9:55 AM,53.6,46.4,77,29.88,10.0,NNE,4.6,-,N/A,,Scattered Clouds,30,2013-09-14 17:55:00
10:36 AM,55.4,48.2,77,29.88,10.0,ENE,4.6,-,N/A,,Scattered Clouds,70,2013-09-14 18:36:00
10:55 AM,55.4,48.2,77,29.88,10.0,NE,4.6,-,N/A,,Clear,40,2013-09-14 18:55:00
11:16 AM,57.2,48.2,72,29.87,10.0,ENE,4.6,-,N/A,,Clear,60,2013-09-14 19:16:00
11:36 AM,57.2,48.2,72,29.87,10.0,ENE,5.8,-,N/A,,Clear,60,2013-09-14 19:36:00
11:56 AM,57.2,48.2,72,29.87,10.0,NE,6.9,-,N/A,,Clear,50,2013-09-14 19:56:00
12:16 PM,55.4,48.2,77,29.87,10.0,NE,6.9,-,N/A,,Clear,50,2013-09-14 20:16:00
12:36 PM,55.4,48.2,77,29.87,10.0,NE,5.8,-,N/A,,Clear,40,2013-09-14 20:36:00
12:56 PM,57.2,48.2,72,29.87,10.0,ENE,4.6,-,N/A,,Clear,70,2013-09-14 20:56:00
1:36 PM,60.8,50.0,68,29.86,10.0,East,5.8,-,N/A,,Clear,80,2013-09-14 21:36:00
1:56 PM,60.8,50.0,68,29.85,10.0,ENE,4.6,-,N/A,,Clear,70,2013-09-14 21:56:00
2:56 PM,60.8,50.0,68,29.84,10.0,NE,6.9,-,N/A,,Clear,50,2013-09-14 22:56:00
3:56 PM,59.0,48.2,67,29.83,10.0,NNE,5.8,-,N/A,,Clear,30,2013-09-14 23:56:00
4:56 PM,-9999,-9999,N/A,29.81,10.0,NE,5.8,-,N/A,,Clear,50,2013-09-15 00:56:00
5:56 PM,55.4,46.4,72,29.81,10.0,ENE,4.6,-,N/A,,Clear,60,2013-09-15 01:56:00
6:36 PM,53.6,46.4,77,29.81,10.0,East,5.8,-,N/A,,Clear,80,2013-09-15 02:36:00
7:55 PM,50.0,46.4,87,29.81,10.0,NE,4.6,-,N/A,,Partly Cloudy,40,2013-09-15 03:55:00
8:16 PM,50.0,46.4,87,29.80,10.0,East,5.8,-,N/A,,Partly Cloudy,90,2013-09-15 04:16:00
9:36 PM,50.0,46.4,87,29.79,10.0,Calm,Calm,-,N/A,,Partly Cloudy,0,2013-09-15 05:36:00
9:56 PM,50.0,44.6,82,29.79,10.0,Calm,Calm,-,N/A,,Partly Cloudy,0,2013-09-15 05:56:00